| time (UTC) | temp F | wind direction | speed knots | gust knots | rain 1hr in | rain 24hr in | rain mn in | humidity % | barometer mb |
| 20260510201519 | 52 | 23 | 1.7 | 5.2 | 0.00 | 0.00 | 0.00 | 65 | 1015.0 |
| 20260510200521 | 53 | 0 | 2.6 | 4.3 | 0.00 | 0.00 | 0.00 | 64 | 1015.2 |
| 20260510195539 | 53 | 23 | 3.5 | 7.0 | 0.00 | 0.00 | 0.00 | 63 | 1015.2 |
| 20260510194519 | 53 | 23 | 3.5 | 7.0 | 0.00 | 0.00 | 0.00 | 62 | 1015.3 |
| 20260510193518 | 54 | 0 | 1.7 | 2.6 | 0.00 | 0.00 | 0.00 | 62 | 1015.1 |
| 20260510192518 | 54 | 23 | 2.6 | 5.2 | 0.00 | 0.00 | 0.00 | 60 | 1015.1 |
| 20260510191542 | 55 | 45 | 2.6 | 4.3 | 0.00 | 0.00 | 0.00 | 60 | 1014.8 |
| 20260510190539 | 56 | 45 | 4.3 | 10.4 | 0.00 | 0.00 | 0.00 | 59 | 1015.1 |
| 20260510185518 | 56 | 68 | 5.2 | 11.3 | 0.00 | 0.00 | 0.00 | 58 | 1014.9 |
| 20260510184519 | 57 | 68 | 6.1 | 10.4 | 0.00 | 0.00 | 0.00 | 58 | 1014.9 |
| 20260510183519 | 57 | 23 | 4.3 | 13.0 | 0.00 | 0.00 | 0.00 | 59 | 1014.9 |
| 20260510182519 | 56 | 45 | 4.3 | 8.7 | 0.00 | 0.00 | 0.00 | 59 | 1015.0 |
| 20260510181524 | 56 | 0 | 6.1 | 12.2 | 0.00 | 0.00 | 0.00 | 60 | 1015.1 |
| 20260510180538 | 56 | 0 | 3.5 | 7.8 | 0.00 | 0.00 | 0.00 | 61 | 1015.2 |
| 20260510175519 | 56 | 45 | 4.3 | 10.4 | 0.00 | 0.00 | 0.00 | 61 | 1015.3 |
| 20260510174519 | 56 | 0 | 7.0 | 13.9 | 0.00 | 0.00 | 0.00 | 61 | 1015.3 |
| 20260510173519 | 56 | 23 | 7.0 | 13.0 | 0.00 | 0.00 | 0.00 | 60 | 1015.5 |
| 20260510172518 | 56 | 0 | 5.2 | 12.2 | 0.00 | 0.00 | 0.00 | 61 | 1015.6 |
| 20260510171519 | 57 | 23 | 5.2 | 11.3 | 0.00 | 0.00 | 0.00 | 61 | 1015.5 |
| 20260510170518 | 57 | 23 | 7.8 | 12.2 | 0.00 | 0.00 | 0.00 | 60 | 1015.8 |
| 20260510165538 | 57 | 45 | 7.0 | 13.0 | 0.00 | 0.00 | 0.00 | 60 | 1015.7 |
| 20260510164518 | 57 | 23 | 7.8 | 14.8 | 0.00 | 0.00 | 0.00 | 61 | 1015.7 |
| 20260510163518 | 56 | 23 | 7.0 | 12.2 | 0.00 | 0.00 | 0.00 | 62 | 1015.9 |
| 20260510162519 | 56 | 23 | 7.0 | 11.3 | 0.00 | 0.00 | 0.00 | 62 | 1016.0 |
| 20260510161523 | 56 | 68 | 7.8 | 14.8 | 0.00 | 0.00 | 0.00 | 63 | 1016.2 |
| 20260510160518 | 56 | 23 | 6.1 | 13.0 | 0.00 | 0.00 | 0.00 | 63 | 1016.2 |
| 20260510155518 | 56 | 23 | 7.8 | 13.9 | 0.00 | 0.00 | 0.00 | 64 | 1016.3 |
| 20260510154521 | 56 | 23 | 7.0 | 13.9 | 0.00 | 0.00 | 0.00 | 64 | 1016.5 |
| 20260510153518 | 56 | 45 | 8.7 | 17.4 | 0.00 | 0.00 | 0.00 | 63 | 1016.6 |
| 20260510152539 | 56 | 23 | 9.6 | 14.8 | 0.00 | 0.00 | 0.00 | 63 | 1016.7 |
| 20260510151525 | 56 | 68 | 7.0 | 14.8 | 0.00 | 0.00 | 0.00 | 63 | 1016.6 |
| 20260510150518 | 56 | 45 | 7.8 | 13.0 | 0.00 | 0.00 | 0.00 | 64 | 1016.5 |
| 20260510145519 | 56 | 68 | 7.0 | 13.0 | 0.00 | 0.00 | 0.00 | 64 | 1016.8 |
| 20260510144519 | 57 | 0 | 7.0 | 16.5 | 0.00 | 0.00 | 0.00 | 62 | 1016.9 |
| 20260510143518 | 57 | 45 | 7.8 | 14.8 | 0.00 | 0.00 | 0.00 | 62 | 1016.9 |
| 20260510142523 | 57 | 45 | 7.0 | 13.9 | 0.00 | 0.00 | 0.00 | 63 | 1017.0 |
| 20260510141518 | 57 | 45 | 7.8 | 13.9 | 0.00 | 0.00 | 0.00 | 62 | 1017.2 |
| 20260510140533 | 58 | 45 | 7.8 | 16.5 | 0.00 | 0.00 | 0.00 | 62 | 1017.3 |
| 20260510135558 | 58 | 45 | 9.6 | 16.5 | 0.00 | 0.00 | 0.00 | 62 | 1017.3 |
| 20260510134517 | 59 | 23 | 8.7 | 15.6 | 0.00 | 0.00 | 0.00 | 60 | 1017.5 |
| 20260510133518 | 59 | 23 | 7.8 | 13.9 | 0.00 | 0.00 | 0.00 | 60 | 1017.4 |
| 20260510132518 | 60 | 23 | 7.8 | 15.6 | 0.00 | 0.00 | 0.00 | 59 | 1017.7 |
| 20260510131520 | 60 | 23 | 7.8 | 14.8 | 0.00 | 0.00 | 0.00 | 59 | 1017.5 |
| 20260510130518 | 61 | 68 | 9.6 | 15.6 | 0.00 | 0.00 | 0.00 | 57 | 1017.7 |
| 20260510125519 | 61 | 23 | 7.0 | 14.8 | 0.00 | 0.00 | 0.00 | 61 | 1017.7 |
| 20260510124521 | 60 | 23 | 8.7 | 14.8 | 0.00 | 0.00 | 0.00 | 61 | 1017.7 |
| 20260510123518 | 60 | 0 | 9.6 | 16.5 | 0.00 | 0.00 | 0.00 | 60 | 1017.7 |
| 20260510122518 | 61 | 45 | 8.7 | 16.5 | 0.00 | 0.00 | 0.00 | 60 | 1017.9 |
| 20260510121538 | 61 | 23 | 9.6 | 17.4 | 0.00 | 0.00 | 0.00 | 60 | 1017.6 |
| 20260510120518 | 60 | 0 | 7.0 | 13.0 | 0.00 | 0.00 | 0.00 | 62 | 1017.7 |
| 20260510115538 | 60 | 23 | 8.7 | 18.2 | 0.00 | 0.00 | 0.00 | 61 | 1017.9 |
| 20260510114518 | 61 | 45 | 7.0 | 13.0 | 0.00 | 0.00 | 0.00 | 60 | 1017.9 |
| 20260510113518 | 62 | 23 | 8.7 | 17.4 | 0.00 | 0.00 | 0.00 | 58 | 1018.3 |
| 20260510112543 | 62 | 45 | 7.8 | 13.0 | 0.00 | 0.00 | 0.00 | 58 | 1018.3 |
| 20260510111520 | 61 | 45 | 8.7 | 16.5 | 0.00 | 0.00 | 0.00 | 59 | 1018.4 |
| 20260510110521 | 63 | 68 | 8.7 | 16.5 | 0.00 | 0.00 | 0.00 | 57 | 1018.4 |
| 20260510105520 | 62 | 45 | 9.6 | 17.4 | 0.00 | 0.00 | 0.00 | 57 | 1018.6 |
| 20260510104542 | 62 | 45 | 8.7 | 15.6 | 0.00 | 0.00 | 0.00 | 60 | 1018.6 |
| 20260510103540 | 62 | 68 | 7.8 | 16.5 | 0.00 | 0.00 | 0.00 | 60 | 1018.6 |
| 20260510102518 | 61 | 68 | 9.6 | 16.5 | 0.00 | 0.00 | 0.00 | 58 | 1018.9 |
| 20260510101517 | 61 | 0 | 7.8 | 14.8 | 0.00 | 0.00 | 0.00 | 60 | 1018.6 |
| 20260510100516 | 61 | 45 | 8.7 | 14.8 | 0.00 | 0.00 | 0.00 | 59 | 1018.6 |
| 20260510095518 | 60 | 68 | 9.6 | 18.2 | 0.00 | 0.00 | 0.00 | 61 | 1018.8 |
| 20260510094538 | 59 | 68 | 10.4 | 19.1 | 0.00 | 0.00 | 0.00 | 62 | 1018.6 |
| 20260510093516 | 57 | 45 | 10.4 | 19.1 | 0.00 | 0.00 | 0.00 | 62 | 1018.7 |
| 20260510092516 | 56 | 45 | 9.6 | 20.9 | 0.00 | 0.00 | 0.00 | 65 | 1018.5 |
| 20260510091522 | 58 | 45 | 9.6 | 17.4 | 0.00 | 0.00 | 0.00 | 62 | 1018.5 |
| 20260510090518 | 58 | 68 | 7.8 | 20.0 | 0.00 | 0.00 | 0.00 | 65 | 1018.6 |
| 20260510085540 | 57 | 68 | 9.6 | 17.4 | 0.00 | 0.00 | 0.00 | 65 | 1018.8 |
| 20260510084520 | 57 | 45 | 6.1 | 14.8 | 0.00 | 0.00 | 0.00 | 66 | 1019.1 |
| 20260510083518 | 57 | 45 | 7.0 | 13.9 | 0.00 | 0.00 | 0.00 | 66 | 1019.0 |
| 20260510082519 | 56 | 68 | 9.6 | 16.5 | 0.00 | 0.00 | 0.00 | 68 | 1019.0 |
| 20260510081523 | 54 | 68 | 7.0 | 16.5 | 0.00 | 0.00 | 0.00 | 71 | 1018.8 |
| 20260510080540 | 54 | 45 | 7.8 | 13.9 | 0.00 | 0.00 | 0.00 | 70 | 1018.8 |
| 20260510075521 | 53 | 45 | 7.8 | 15.6 | 0.00 | 0.00 | 0.00 | 71 | 1019.0 |
| 20260510074555 | 53 | 45 | 9.6 | 17.4 | 0.00 | 0.00 | 0.00 | 72 | 1018.9 |
| 20260510073519 | 53 | 23 | 6.1 | 13.0 | 0.00 | 0.00 | 0.00 | 72 | 1018.8 |
| 20260510072523 | 52 | 68 | 7.0 | 11.3 | 0.00 | 0.00 | 0.00 | 73 | 1018.8 |
| 20260510071525 | 52 | 68 | 9.6 | 18.2 | 0.00 | 0.00 | 0.00 | 73 | 1018.6 |
| 20260510070520 | 52 | 45 | 8.7 | 16.5 | 0.00 | 0.00 | 0.00 | 74 | 1018.5 |
| 20260510065524 | 51 | 23 | 7.0 | 13.9 | 0.00 | 0.00 | 0.00 | 75 | 1018.6 |
| 20260510064520 | 51 | 68 | 6.1 | 13.0 | 0.00 | 0.00 | 0.00 | 76 | 1018.4 |
| 20260510063520 | 51 | 45 | 7.0 | 13.9 | 0.00 | 0.00 | 0.00 | 77 | 1018.5 |
| 20260510062520 | 50 | 45 | 6.1 | 14.8 | 0.00 | 0.00 | 0.00 | 77 | 1018.2 |
| 20260510061520 | 50 | 45 | 6.1 | 13.0 | 0.00 | 0.00 | 0.00 | 78 | 1018.2 |
| 20260510060519 | 49 | 45 | 5.2 | 12.2 | 0.00 | 0.00 | 0.00 | 79 | 1018.3 |
| 20260510055520 | 49 | 23 | 4.3 | 8.7 | 0.00 | 0.00 | 0.00 | 79 | 1018.3 |
| 20260510054520 | 49 | 68 | 2.6 | 5.2 | 0.00 | 0.00 | 0.00 | 79 | 1018.3 |
| 20260510053520 | 49 | 68 | 3.5 | 9.6 | 0.00 | 0.00 | 0.00 | 79 | 1018.4 |
| 20260510052519 | 48 | 45 | 3.5 | 9.6 | 0.00 | 0.00 | 0.00 | 80 | 1018.4 |
| 20260510051530 | 48 | 45 | 3.5 | 9.6 | 0.00 | 0.00 | 0.00 | 80 | 1018.3 |
| 20260510050519 | 48 | 23 | 4.3 | 9.6 | 0.00 | 0.00 | 0.00 | 80 | 1018.4 |
| 20260510045520 | 48 | 68 | 4.3 | 10.4 | 0.00 | 0.00 | 0.00 | 80 | 1018.3 |
| 20260510044519 | 48 | 45 | 4.3 | 10.4 | 0.00 | 0.00 | 0.00 | 80 | 1018.3 |
| 20260510043540 | 48 | 45 | 4.3 | 11.3 | 0.00 | 0.00 | 0.00 | 80 | 1018.2 |
| 20260510042524 | 48 | 45 | 7.0 | 11.3 | 0.00 | 0.00 | 0.00 | 79 | 1018.1 |
| 20260510041519 | 48 | 45 | 4.3 | 11.3 | 0.00 | 0.00 | 0.00 | 78 | 1018.3 |
| 20260510040523 | 48 | 45 | 4.3 | 8.7 | 0.00 | 0.00 | 0.00 | 77 | 1018.4 |
| 20260510035518 | 49 | 45 | 3.5 | 9.6 | 0.00 | 0.00 | 0.00 | 76 | 1018.3 |
| 20260510034524 | 49 | 45 | 5.2 | 11.3 | 0.00 | 0.00 | 0.00 | 75 | 1018.2 |
| 20260510033519 | 49 | 45 | 5.2 | 13.0 | 0.00 | 0.00 | 0.00 | 75 | 1018.4 |
| 20260510032519 | 50 | 45 | 5.2 | 10.4 | 0.00 | 0.00 | 0.00 | 74 | 1018.4 |
| 20260510031519 | 50 | 45 | 4.3 | 8.7 | 0.00 | 0.00 | 0.00 | 73 | 1018.4 |
| 20260510030521 | 50 | 45 | 3.5 | 7.8 | 0.00 | 0.00 | 0.00 | 73 | 1018.3 |
| 20260510025524 | 50 | 45 | 3.5 | 7.8 | 0.00 | 0.00 | 0.00 | 74 | 1018.4 |
| 20260510024519 | 50 | 23 | 2.6 | 7.0 | 0.00 | 0.00 | 0.00 | 74 | 1018.5 |
| 20260510023519 | 50 | 45 | 4.3 | 7.8 | 0.00 | 0.00 | 0.00 | 73 | 1018.5 |
| 20260510022539 | 51 | 45 | 3.5 | 7.8 | 0.00 | 0.00 | 0.00 | 72 | 1018.7 |
| 20260510021519 | 51 | 23 | 3.5 | 8.7 | 0.00 | 0.00 | 0.00 | 71 | 1018.5 |
| 20260510020519 | 51 | 23 | 3.5 | 7.8 | 0.00 | 0.00 | 0.00 | 71 | 1018.4 |
| 20260510015520 | 52 | 45 | 4.3 | 10.4 | 0.00 | 0.00 | 0.00 | 71 | 1018.1 |
| 20260510014519 | 52 | 23 | 4.3 | 8.7 | 0.00 | 0.00 | 0.00 | 70 | 1018.2 |
| 20260510013520 | 52 | 45 | 3.5 | 8.7 | 0.00 | 0.00 | 0.00 | 70 | 1018.3 |
| 20260510012519 | 53 | 68 | 3.5 | 8.7 | 0.00 | 0.00 | 0.00 | 71 | 1018.2 |
| 20260510011519 | 53 | 45 | 5.2 | 11.3 | 0.00 | 0.00 | 0.00 | 72 | 1018.1 |
| 20260510010539 | 53 | 45 | 4.3 | 9.6 | 0.00 | 0.00 | 0.00 | 74 | 1018.0 |
| 20260510005539 | 53 | 68 | 5.2 | 12.2 | 0.00 | 0.00 | 0.00 | 76 | 1018.1 |
| 20260510004520 | 54 | 45 | 3.5 | 8.7 | 0.00 | 0.00 | 0.00 | 77 | 1018.1 |
| 20260510003545 | 54 | 45 | 4.3 | 9.6 | 0.00 | 0.00 | 0.00 | 78 | 1018.2 |
| 20260510002524 | 54 | 45 | 3.5 | 6.1 | 0.00 | 0.00 | 0.00 | 78 | 1018.3 |
| 20260510001519 | 54 | 68 | 3.5 | 7.8 | 0.00 | 0.00 | 0.00 | 78 | 1018.4 |
| 20260510000519 | 55 | 45 | 3.5 | 7.8 | 0.00 | 0.00 | 0.00 | 78 | 1018.4 |
| 20260509235519 | 55 | 68 | 3.5 | 9.6 | 0.00 | 0.00 | 0.00 | 77 | 1018.1 |
| 20260509234520 | 55 | 68 | 2.6 | 7.8 | 0.00 | 0.00 | 0.00 | 77 | 1018.1 |
| 20260509233521 | 56 | 23 | 3.5 | 7.0 | 0.00 | 0.00 | 0.00 | 76 | 1018.1 |
| 20260509232519 | 56 | 68 | 3.5 | 7.8 | 0.00 | 0.00 | 0.00 | 76 | 1018.2 |
| 20260509231619 | 56 | 68 | 3.5 | 8.7 | 0.00 | 0.00 | 0.00 | 75 | 1018.1 |
| 20260509230520 | 56 | 45 | 2.6 | 8.7 | 0.00 | 0.00 | 0.00 | 75 | 1018.0 |
| 20260509225520 | 57 | 23 | 3.5 | 8.7 | 0.00 | 0.00 | 0.00 | 75 | 1018.0 |
| 20260509224520 | 57 | 23 | 3.5 | 6.1 | 0.00 | 0.00 | 0.00 | 74 | 1017.8 |
| 20260509223520 | 57 | 23 | 4.3 | 10.4 | 0.00 | 0.00 | 0.00 | 74 | 1017.8 |
| 20260509222519 | 57 | 23 | 5.2 | 10.4 | 0.00 | 0.00 | 0.00 | 74 | 1017.9 |
| 20260509221519 | 57 | 23 | 6.1 | 12.2 | 0.00 | 0.00 | 0.00 | 75 | 1017.7 |
| 20260509220550 | 57 | 45 | 3.5 | 11.3 | 0.00 | 0.00 | 0.00 | 75 | 1017.8 |
| 20260509215540 | 57 | 23 | 4.3 | 9.6 | 0.00 | 0.00 | 0.00 | 74 | 1017.6 |
| 20260509214519 | 58 | 23 | 7.0 | 14.8 | 0.00 | 0.00 | 0.00 | 74 | 1017.7 |
| 20260509213542 | 58 | 23 | 6.1 | 13.0 | 0.00 | 0.00 | 0.00 | 73 | 1017.8 |
| 20260509212522 | 58 | 23 | 7.8 | 14.8 | 0.00 | 0.00 | 0.00 | 73 | 1017.6 |
| 20260509211542 | 59 | 23 | 6.1 | 13.0 | 0.00 | 0.00 | 0.00 | 72 | 1017.6 |
| 20260509210519 | 59 | 23 | 6.1 | 13.0 | 0.00 | 0.00 | 0.00 | 72 | 1017.4 |
| 20260509205519 | 60 | 23 | 7.8 | 13.9 | 0.00 | 0.00 | 0.00 | 70 | 1017.2 |
| 20260509204519 | 60 | 23 | 7.8 | 14.8 | 0.00 | 0.00 | 0.00 | 69 | 1017.2 |
| 20260509203539 | 61 | 23 | 7.0 | 13.0 | 0.00 | 0.00 | 0.00 | 65 | 1017.1 |
| 20260509202519 | 61 | 0 | 5.2 | 11.3 | 0.00 | 0.00 | 0.00 | 58 | 1017.1 |